Location: Betpouey
(42.8833°N, 0.0333°E)
Time: 22:27:17
(UTC+00:00)

ISS - Pass Details

Date: 01 December 2020
Orbit: 418 x 419 km, 51.6° (Epoch: 20 January)

Event Time Altitude Azimuth Distance (km) Brightness Sun altitude
Rises 17:51:19 0° 301° (WNW) 2,368 0.7 -15.1°
Reaches altitude 10° 17:53:48 10° 319° (NW) 1,503 -0.6 -15.6°
Maximum altitude 17:56:22 20° 9° (N) 1,046 -2.0 -16.0°
Enters shadow 17:56:36 20° 15° (NNE) 1,050 -2.0 -16.0°
